TimeMDT,TemperatureF,Dew PointF,Humidity,Sea Level PressureIn,VisibilityMPH,Wind Direction,Wind SpeedMPH,Gust SpeedMPH,PrecipitationIn,Events,Conditions,WindDirDegrees,DateUTC
1:53 AM,50.0,37.9,63,30.02,10.0,West,4.6,-,N/A,,Unknown,260,2012-10-02 07:53:00
2:53 AM,48.9,37.0,64,30.02,10.0,Calm,Calm,-,N/A,,Unknown,0,2012-10-02 08:53:00
3:53 AM,48.9,36.0,61,30.01,10.0,South,5.8,-,N/A,,Unknown,180,2012-10-02 09:53:00
4:53 AM,46.9,36.0,66,30.02,10.0,West,3.5,-,N/A,,Unknown,280,2012-10-02 10:53:00
5:53 AM,45.0,34.0,65,30.02,10.0,Calm,Calm,-,N/A,,Unknown,0,2012-10-02 11:53:00
6:53 AM,41.0,34.0,76,30.02,10.0,Calm,Calm,-,N/A,,Unknown,0,2012-10-02 12:53:00
7:53 AM,41.0,36.0,82,30.04,10.0,NNW,3.5,-,N/A,,Unknown,340,2012-10-02 13:53:00
8:53 AM,48.0,39.0,71,30.05,10.0,Calm,Calm,-,N/A,,Unknown,0,2012-10-02 14:53:00
9:53 AM,54.0,37.9,55,30.04,10.0,Calm,Calm,-,N/A,,Unknown,0,2012-10-02 15:53:00
10:53 AM,60.1,39.0,46,30.04,10.0,Calm,Calm,-,N/A,,Clear,0,2012-10-02 16:53:00
11:53 AM,66.9,39.0,36,30.01,10.0,Calm,Calm,-,N/A,,Clear,0,2012-10-02 17:53:00
12:53 PM,73.0,42.1,33,29.99,10.0,Calm,Calm,-,N/A,,Clear,0,2012-10-02 18:53:00
1:53 PM,79.0,39.9,25,29.95,10.0,Calm,Calm,-,N/A,,Clear,0,2012-10-02 19:53:00
2:53 PM,81.0,37.0,21,29.92,10.0,Variable,4.6,-,N/A,,Clear,0,2012-10-02 20:53:00
3:53 PM,84.9,30.0,14,29.89,10.0,Calm,Calm,-,N/A,,Clear,0,2012-10-02 21:53:00
4:53 PM,82.9,35.1,18,29.88,10.0,ESE,6.9,-,N/A,,Clear,110,2012-10-02 22:53:00
6:53 PM,79.0,19.9,11,29.88,10.0,NNW,6.9,-,N/A,,Clear,330,2012-10-03 00:53:00
7:53 PM,68.0,26.1,21,29.89,10.0,WSW,3.5,-,N/A,,Clear,240,2012-10-03 01:53:00
8:53 PM,69.1,19.9,15,29.89,10.0,NW,11.5,-,N/A,,Clear,320,2012-10-03 02:53:00
9:53 PM,70.0,21.0,16,29.92,10.0,NW,17.3,27.6,N/A,,Clear,320,2012-10-03 03:53:00
10:53 PM,57.9,19.9,23,29.95,10.0,NW,9.2,-,N/A,,Clear,310,2012-10-03 04:53:00
11:53 PM,62.1,19.0,19,29.97,10.0,NW,12.7,-,N/A,,Clear,310,2012-10-03 05:53:00